DW9426 Weather Reports


time (UTC)temp
C
wind
direction
speed
KPH
gust
KPH
rain 1hr
cm
rain 24hr
cm
rain mn
cm
humidity
%
barometer
mb
20220629043504 23 28 0.0 6.4 0.00 0.00 0.00 67 1022.3
20220629043004 23 32 1.6 6.4 0.00 0.00 0.00 67 1022.2
20220629042504 23 33 0.0 4.8 0.00 0.00 0.00 67 1022.2
20220629042004 24 37 0.0 4.8 0.00 0.00 0.00 67 1022.2
20220629041504 24 30 0.0 4.8 0.00 0.00 0.00 66 1022.1
20220629041004 24 34 1.6 6.4 0.00 0.00 0.00 66 1022.2
20220629040504 24 39 1.6 6.4 0.00 0.00 0.00 66 1022.1
20220629040004 24 42 0.0 4.8 0.00 0.00 0.00 66 1022.2
20220629035504 24 34 1.6 4.8 0.00 0.00 0.00 66 1022.2
20220629035003 24 29 1.6 4.8 0.00 0.00 0.00 66 1022.1
20220629034504 24 27 0.0 4.8 0.00 0.00 0.00 65 1022.1
20220629034004 24 31 0.0 4.8 0.00 0.00 0.00 65 1022.1
20220629033504 24 33 0.0 4.8 0.00 0.00 0.00 65 1022.0
20220629033004 24 39 0.0 4.8 0.00 0.00 0.00 64 1021.9
20220629032503 24 38 0.0 4.8 0.00 0.00 0.00 64 1021.9
20220629032004 24 33 0.0 4.8 0.00 0.00 0.00 64 1021.8
20220629031504 24 35 1.6 4.8 0.00 0.00 0.00 64 1021.7
20220629031004 25 43 1.6 4.8 0.00 0.00 0.00 64 1021.6
20220629030504 24 42 1.6 4.8 0.00 0.00 0.00 64 1021.6
20220629030004 24 36 0.0 4.8 0.00 0.00 0.00 64 1021.5
20220629025504 25 35 0.0 6.4 0.00 0.00 0.00 64 1021.5
20220629025005 25 34 1.6 6.4 0.00 0.00 0.00 63 1021.4
20220629024504 25 32 0.0 4.8 0.00 0.00 0.00 63 1021.3
20220629024004 25 32 0.0 4.8 0.00 0.00 0.00 63 1021.2
20220629023504 25 35 1.6 6.4 0.00 0.00 0.00 63 1021.2
20220629023004 25 40 1.6 6.4 0.00 0.00 0.00 63 1021.1
20220629022504 25 36 0.0 6.4 0.00 0.00 0.00 63 1021.1
20220629022004 25 30 1.6 6.4 0.00 0.00 0.00 63 1021.1
20220629021504 25 35 1.6 6.4 0.00 0.00 0.00 62 1021.0
20220629021004 25 37 0.0 6.4 0.00 0.00 0.00 62 1021.1
20220629020504 25 34 0.0 4.8 0.00 0.00 0.00 61 1021.1
20220629020004 25 18 0.0 4.8 0.00 0.00 0.00 61 1021.1
20220629015504 25 12 1.6 4.8 0.00 0.00 0.00 60 1021.1
20220629015004 26 14 1.6 6.4 0.00 0.00 0.00 59 1021.0
20220629014504 26 16 1.6 6.4 0.00 0.00 0.00 59 1021.0
20220629014004 26 15 1.6 6.4 0.00 0.00 0.00 58 1020.9
20220629013505 26 13 0.0 6.4 0.00 0.00 0.00 58 1020.8
20220629013005 26 19 0.0 3.2 0.00 0.00 0.00 57 1020.8
20220629012504 26 33 1.6 8.0 0.00 0.00 0.00 56 1020.8
20220629012005 27 33 3.2 8.0 0.00 0.00 0.00 56 1020.7
20220629011503 27 36 3.2 9.7 0.00 0.00 0.00 55 1020.7
20220629011004 27 34 3.2 9.7 0.00 0.00 0.00 55 1020.7
20220629010504 27 29 3.2 9.7 0.00 0.00 0.00 54 1020.7
20220629010004 27 35 3.2 14.5 0.00 0.00 0.00 54 1020.5
20220629005504 27 34 6.4 19.3 0.00 0.00 0.00 53 1020.6
20220629005004 27 31 6.4 19.3 0.00 0.00 0.00 52 1020.5
20220629004504 27 37 8.0 16.1 0.00 0.00 0.00 52 1020.5
20220629004004 28 42 8.0 16.1 0.00 0.00 0.00 51 1020.5
20220629003504 28 39 6.4 14.5 0.00 0.00 0.00 51 1020.5
20220629003004 28 34 6.4 16.1 0.00 0.00 0.00 50 1020.4
20220629002504 28 32 8.0 19.3 0.00 0.00 0.00 50 1020.4
20220629002004 28 36 8.0 19.3 0.00 0.00 0.00 49 1020.4
20220629001504 28 36 8.0 20.9 0.00 0.00 0.00 48 1020.3
20220629001004 28 35 9.7 20.9 0.00 0.00 0.00 48 1020.3
20220629000505 29 30 8.0 20.9 0.00 0.00 0.00 47 1020.3
20220629000004 29 27 8.0 20.9 0.00 0.00 0.00 46 1020.2
20220628235505 29 28 8.0 17.7 0.00 0.00 0.00 47 1020.2
20220628235005 30 25 8.0 14.5 0.00 0.00 0.00 46 1020.2
20220628234504 30 23 8.0 17.7 0.00 0.00 0.00 46 1020.3
20220628234004 29 29 8.0 17.7 0.00 0.00 0.00 46 1020.3
20220628233504 29 31 9.7 19.3 0.00 0.00 0.00 46 1020.4
20220628233004 29 28 8.0 19.3 0.00 0.00 0.00 46 1020.4
20220628232504 29 22 8.0 19.3 0.00 0.00 0.00 46 1020.4
20220628232004 29 24 9.7 19.3 0.00 0.00 0.00 46 1020.4
20220628231505 30 34 9.7 17.7 0.00 0.00 0.00 45 1020.5
20220628231006 30 34 9.7 19.3 0.00 0.00 0.00 44 1020.6
20220628230505 30 31 9.7 19.3 0.00 0.00 0.00 45 1020.6
20220628230004 30 31 9.7 19.3 0.00 0.00 0.00 44 1020.7
20220628225504 30 33 9.7 19.3 0.00 0.00 0.00 44 1020.7
20220628225004 30 30 8.0 19.3 0.00 0.00 0.00 42 1020.8
20220628224504 30 28 9.7 20.9 0.00 0.00 0.00 42 1020.8
20220628224004 30 30 9.7 20.9 0.00 0.00 0.00 43 1020.9
20220628223504 30 23 8.0 19.3 0.00 0.00 0.00 43 1020.9
20220628223005 30 16 8.0 16.1 0.00 0.00 0.00 43 1021.0
20220628222505 30 17 8.0 16.1 0.00 0.00 0.00 42 1021.1
20220628222005 30 11 8.0 16.1 0.00 0.00 0.00 42 1021.1
20220628221507 30 7 8.0 20.9 0.00 0.00 0.00 42 1021.2
20220628221004 30 24 8.0 20.9 0.00 0.00 0.00 41 1021.2
20220628220504 30 27 8.0 17.7 0.00 0.00 0.00 40 1021.2
20220628220004 30 34 9.7 24.1 0.00 0.00 0.00 39 1021.2
20220628215505 30 40 11.3 24.1 0.00 0.00 0.00 40 1021.3
20220628215005 31 36 8.0 22.5 0.00 0.00 0.00 38 1021.4
20220628214504 31 35 6.4 16.1 0.00 0.00 0.00 39 1021.6
20220628214005 31 28 4.8 16.1 0.00 0.00 0.00 39 1021.6
20220628213504 31 8 4.8 12.9 0.00 0.00 0.00 39 1021.6
20220628213004 31 15 8.0 14.5 0.00 0.00 0.00 38 1021.6
20220628212504 31 28 6.4 20.9 0.00 0.00 0.00 38 1021.8
20220628212004 31 44 4.8 20.9 0.00 0.00 0.00 37 1021.8
20220628211504 31 56 4.8 16.1 0.00 0.00 0.00 39 1022.0
20220628211004 31 60 3.2 16.1 0.00 0.00 0.00 36 1021.9
20220628210505 32 68 3.2 12.9 0.00 0.00 0.00 37 1022.1
20220628210004 31 61 3.2 11.3 0.00 0.00 0.00 37 1022.2
20220628205504 31 51 3.2 12.9 0.00 0.00 0.00 36 1022.2
20220628205004 31 50 4.8 12.9 0.00 0.00 0.00 37 1022.3
20220628204505 31 61 3.2 17.7 0.00 0.00 0.00 36 1022.3
20220628204004 31 82 4.8 17.7 0.00 0.00 0.00 38 1022.4
20220628203504 31 68 4.8 12.9 0.00 0.00 0.00 38 1022.4
20220628203004 31 48 3.2 12.9 0.00 0.00 0.00 37 1022.5
20220628202504 31 56 4.8 12.9 0.00 0.00 0.00 37 1022.5
20220628202005 31 57 4.8 12.9 0.00 0.00 0.00 37 1022.6
20220628201504 31 85 3.2 11.3 0.00 0.00 0.00 38 1022.6
20220628201004 31 92 3.2 9.7 0.00 0.00 0.00 39 1022.7
20220628200504 31 51 1.6 9.7 0.00 0.00 0.00 39 1022.7
20220628200004 31 47 3.2 11.3 0.00 0.00 0.00 40 1022.7
20220628195504 30 38 6.4 14.5 0.00 0.00 0.00 40 1022.8
20220628195005 30 51 4.8 14.5 0.00 0.00 0.00 38 1022.8
20220628194504 31 95 3.2 9.7 0.00 0.00 0.00 39 1022.7
20220628194004 30 64 3.2 11.3 0.00 0.00 0.00 40 1022.9
20220628193504 30 49 3.2 11.3 0.00 0.00 0.00 40 1022.9
20220628193004 30 51 4.8 14.5 0.00 0.00 0.00 40 1023.0
20220628192503 30 50 4.8 14.5 0.00 0.00 0.00 40 1023.0
20220628192004 30 66 3.2 12.9 0.00 0.00 0.00 39 1023.0
20220628191504 30 69 4.8 14.5 0.00 0.00 0.00 42 1023.2
20220628191004 30 60 4.8 14.5 0.00 0.00 0.00 42 1023.2
20220628190504 30 46 3.2 14.5 0.00 0.00 0.00 42 1023.3
20220628190004 30 44 3.2 12.9 0.00 0.00 0.00 41 1023.4
20220628185504 30 66 1.6 11.3 0.00 0.00 0.00 43 1023.5
20220628185004 30 74 3.2 9.7 0.00 0.00 0.00 41 1023.6
20220628184504 30 63 4.8 11.3 0.00 0.00 0.00 43 1023.6
20220628184004 30 37 8.0 20.9 0.00 0.00 0.00 45 1023.7
20220628183504 29 37 4.8 20.9 0.00 0.00 0.00 43 1023.7
20220628183004 30 46 3.2 16.1 0.00 0.00 0.00 43 1023.8
20220628182504 29 35 6.4 16.1 0.00 0.00 0.00 43 1024.0
20220628182004 30 38 4.8 16.1 0.00 0.00 0.00 42 1024.0
20220628181504 30 80 3.2 12.9 0.00 0.00 0.00 42 1024.0
20220628181004 30 111 1.6 11.3 0.00 0.00 0.00 43 1024.1
20220628180504 30 105 3.2 12.9 0.00 0.00 0.00 44 1024.2
20220628180004 30 105 3.2 12.9 0.00 0.00 0.00 43 1024.2
20220628175504 30 88 3.2 12.9 0.00 0.00 0.00 44 1024.2
20220628175004 30 81 1.6 11.3 0.00 0.00 0.00 44 1024.1
20220628174504 30 93 1.6 11.3 0.00 0.00 0.00 46 1024.1
20220628174004 29 72 1.6 11.3 0.00 0.00 0.00 47 1024.2
20220628173504 28 60 3.2 16.1 0.00 0.00 0.00 47 1024.2
20220628173004 28 56 3.2 16.1 0.00 0.00 0.00 47 1024.3
20220628172504 28 57 3.2 14.5 0.00 0.00 0.00 49 1024.2
20220628172004 28 55 6.4 17.7 0.00 0.00 0.00 48 1024.3
20220628171504 28 53 6.4 17.7 0.00 0.00 0.00 47 1024.3
20220628171005 28 48 4.8 17.7 0.00 0.00 0.00 47 1024.4
20220628170504 28 46 4.8 16.1 0.00 0.00 0.00 47 1024.4
20220628170004 28 52 3.2 16.1 0.00 0.00 0.00 46 1024.4
20220628165504 28 59 3.2 12.9 0.00 0.00 0.00 45 1024.4
20220628165004 28 59 3.2 17.7 0.00 0.00 0.00 48 1024.4
20220628164505 28 75 3.2 17.7 0.00 0.00 0.00 48 1024.4
20220628164003 28 79 1.6 12.9 0.00 0.00 0.00 47 1024.5
20220628163505 28 70 4.8 16.1 0.00 0.00 0.00 49 1024.3
20220628163004 28 75 3.2 16.1 0.00 0.00 0.00 48 1024.4
20220628162504 28 81 1.6 12.9 0.00 0.00 0.00 48 1024.5
20220628162004 28 82 1.6 11.3 0.00 0.00 0.00 50 1024.4
20220628161504 28 66 3.2 16.1 0.00 0.00 0.00 50 1024.5
20220628161004 27 65 3.2 16.1 0.00 0.00 0.00 51 1024.6
20220628160505 27 62 3.2 16.1 0.00 0.00 0.00 50 1024.6
20220628160004 27 57 3.2 17.7 0.00 0.00 0.00 50 1024.5
20220628155504 27 59 4.8 17.7 0.00 0.00 0.00 49 1024.5
20220628155004 27 59 6.4 17.7 0.00 0.00 0.00 49 1024.5
20220628154505 27 56 4.8 22.5 0.00 0.00 0.00 50 1024.5
20220628154004 27 64 3.2 22.5 0.00 0.00 0.00 48 1024.4
20220628153504 27 80 3.2 11.3 0.00 0.00 0.00 49 1024.2
20220628153004 27 55 4.8 17.7 0.00 0.00 0.00 52 1024.3
20220628152504 26 55 4.8 17.7 0.00 0.00 0.00 51 1024.3
20220628152004 26 59 4.8 14.5 0.00 0.00 0.00 50 1024.3
20220628151504 27 61 3.2 14.5 0.00 0.00 0.00 50 1024.2
20220628151003 27 58 3.2 14.5 0.00 0.00 0.00 50 1024.3
20220628150504 26 61 3.2 12.9 0.00 0.00 0.00 51 1024.3
20220628150004 26 62 3.2 11.3 0.00 0.00 0.00 52 1024.4
20220628145504 26 51 6.4 16.1 0.00 0.00 0.00 52 1024.3
20220628145004 26 51 6.4 17.7 0.00 0.00 0.00 52 1024.3
20220628144504 26 55 6.4 17.7 0.00 0.00 0.00 51 1024.3
20220628144004 26 55 3.2 14.5 0.00 0.00 0.00 51 1024.4
20220628143504 26 64 1.6 11.3 0.00 0.00 0.00 54 1024.4
20220628143004 26 74 1.6 8.0 0.00 0.00 0.00 56 1024.3
20220628142504 26 74 1.6 11.3 0.00 0.00 0.00 57 1024.2
20220628142004 25 58 3.2 16.1 0.00 0.00 0.00 59 1024.2
20220628141504 25 49 4.8 16.1 0.00 0.00 0.00 60 1024.2
20220628141004 25 48 4.8 16.1 0.00 0.00 0.00 60 1024.2
20220628140504 25 52 4.8 17.7 0.00 0.00 0.00 62 1024.2
20220628140005 25 50 6.4 17.7 0.00 0.00 0.00 61 1024.3
20220628135504 25 52 4.8 11.3 0.00 0.00 0.00 62 1024.3
20220628135004 25 54 3.2 9.7 0.00 0.00 0.00 63 1024.2
20220628134504 25 52 1.6 8.0 0.00 0.00 0.00 63 1024.2
20220628134004 24 49 1.6 9.7 0.00 0.00 0.00 65 1024.2
20220628133504 24 51 1.6 9.7 0.00 0.00 0.00 66 1024.2
20220628133004 23 52 3.2 9.7 0.00 0.00 0.00 69 1024.1
20220628132503 23 53 3.2 11.3 0.00 0.00 0.00 71 1024.1
20220628132004 23 53 3.2 11.3 0.00 0.00 0.00 75 1024.0
20220628131504 23 50 1.6 9.7 0.00 0.00 0.00 75 1023.9
20220628131004 22 55 1.6 8.0 0.00 0.00 0.00 78 1023.9
20220628130504 22 54 1.6 8.0 0.00 0.00 0.00 80 1023.9
20220628130004 22 39 1.6 8.0 0.00 0.00 0.00 82 1023.8
20220628125505 22 44 1.6 8.0 0.00 0.00 0.00 82 1023.8
20220628125003 22 57 1.6 6.4 0.00 0.00 0.00 82 1023.8
20220628124504 21 53 0.0 4.8 0.00 0.00 0.00 83 1023.9
20220628124004 21 50 0.0 4.8 0.00 0.00 0.00 84 1023.8
20220628123504 21 45 0.0 3.2 0.00 0.00 0.00 85 1023.9
20220628123004 21 37 0.0 3.2 0.00 0.00 0.00 86 1023.8
20220628122504 21 33 0.0 3.2 0.00 0.00 0.00 86 1023.8
20220628122004 21 35 0.0 3.2 0.00 0.00 0.00 87 1023.7
20220628121504 20 37 0.0 3.2 0.00 0.00 0.00 87 1023.8
20220628121004 20 34 0.0 3.2 0.00 0.00 0.00 87 1023.7
20220628120504 20 32 0.0 4.8 0.00 0.00 0.00 87 1023.6
20220628120004 20 33 0.0 4.8 0.00 0.00 0.00 87 1023.6
20220628115504 20 38 0.0 3.2 0.00 0.00 0.00 87 1023.5
20220628115003 20 6 0.0 1.6 0.00 0.00 0.00 86 1023.5
20220628114504 20 349 0.0 1.6 0.00 0.00 0.00 86 1023.6
20220628114004 20 359 0.0 1.6 0.00 0.00 0.00 87 1023.5
20220628113504 20 25 0.0 1.6 0.00 0.00 0.00 87 1023.5
20220628113004 20 42 0.0 1.6 0.00 0.00 0.00 87 1023.5
20220628112503 20 40 0.0 1.6 0.00 0.00 0.00 87 1023.5
20220628112004 20 39 0.0 1.6 0.00 0.00 0.00 86 1023.5
20220628111504 20 43 0.0 1.6 0.00 0.00 0.00 86 1023.4
20220628111004 20 43 0.0 1.6 0.00 0.00 0.00 86 1023.3
20220628110504 20 41 0.0 1.6 0.00 0.00 0.00 85 1023.3
20220628110004 20 54 0.0 1.6 0.00 0.00 0.00 86 1023.2
20220628105504 21 59 0.0 1.6 0.00 0.00 0.00 85 1023.1
20220628105004 21 59 0.0 1.6 0.00 0.00 0.00 85 1023.0
20220628104504 20 60 0.0 1.6 0.00 0.00 0.00 85 1023.0
20220628104004 20 61 0.0 1.6 0.00 0.00 0.00 86 1023.0
20220628103504 20 0 0.0 0.0 0.00 0.00 0.00 86 1023.0
20220628103004 20 46 0.0 1.6 0.00 0.00 0.00 86 1022.9
20220628102504 20 47 0.0 3.2 0.00 0.00 0.00 86 1022.8
20220628102005 20 48 0.0 3.2 0.00 0.00 0.00 86 1022.9
20220628101504 20 55 0.0 1.6 0.00 0.00 0.00 86 1022.9
20220628101004 20 55 0.0 1.6 0.00 0.00 0.00 86 1022.9
20220628100504 20 53 0.0 1.6 0.00 0.00 0.00 86 1022.9
20220628100004 20 52 0.0 1.6 0.00 0.00 0.00 86 1022.8
20220628095504 20 0 0.0 0.0 0.00 0.00 0.00 86 1022.9
20220628095003 20 0 0.0 0.0 0.00 0.00 0.00 87 1022.9
20220628094504 20 127 0.0 1.6 0.00 0.00 0.00 87 1022.8
20220628094004 20 127 0.0 1.6 0.00 0.00 0.00 87 1022.7
20220628093504 20 0 0.0 0.0 0.00 0.00 0.00 86 1022.7
20220628093004 20 0 0.0 0.0 0.00 0.00 0.00 86 1022.8
20220628092504 20 0 0.0 0.0 0.00 0.00 0.00 86 1022.8
20220628092003 20 0 0.0 0.0 0.00 0.00 0.00 86 1022.8
20220628091504 20 0 0.0 0.0 0.00 0.00 0.00 86 1022.7
20220628091004 20 0 0.0 0.0 0.00 0.00 0.00 85 1022.7
20220628090504 20 0 0.0 0.0 0.00 0.00 0.00 85 1022.6
20220628090004 20 0 0.0 0.0 0.00 0.00 0.00 86 1022.7
20220628085503 20 0 0.0 0.0 0.00 0.00 0.00 86 1022.7
20220628085004 20 0 0.0 0.0 0.00 0.00 0.00 86 1022.7
20220628084504 20 0 0.0 0.0 0.00 0.00 0.00 87 1022.5
20220628084004 20 0 0.0 0.0 0.00 0.00 0.00 87 1022.5
20220628083504 20 0 0.0 0.0 0.00 0.00 0.00 86 1022.5
20220628083004 20 0 0.0 0.0 0.00 0.00 0.00 86 1022.5
20220628082503 21 0 0.0 0.0 0.00 0.00 0.00 86 1022.5
20220628082005 21 0 0.0 0.0 0.00 0.00 0.00 86 1022.5
20220628081504 21 0 0.0 0.0 0.00 0.00 0.00 86 1022.5
20220628081004 21 0 0.0 0.0 0.00 0.00 0.00 85 1022.5
20220628080504 21 0 0.0 0.0 0.00 0.00 0.00 85 1022.4
20220628080004 21 127 0.0 1.6 0.00 0.00 0.00 85 1022.5
20220628075504 21 122 0.0 1.6 0.00 0.00 0.00 85 1022.4
20220628075004 21 120 0.0 1.6 0.00 0.00 0.00 86 1022.4
20220628074504 21 109 0.0 1.6 0.00 0.00 0.00 86 1022.4
20220628074004 21 101 0.0 1.6 0.00 0.00 0.00 86 1022.5
20220628073504 21 0 0.0 0.0 0.00 0.00 0.00 85 1022.6
20220628073004 21 0 0.0 0.0 0.00 0.00 0.00 85 1022.6
20220628072504 22 75 0.0 1.6 0.00 0.00 0.00 84 1022.6
20220628072004 22 76 0.0 1.6 0.00 0.00 0.00 84 1022.7
20220628071504 22 76 0.0 1.6 0.00 0.00 0.00 85 1022.7
20220628071004 22 85 0.0 1.6 0.00 0.00 0.00 85 1022.8
20220628070504 22 85 0.0 1.6 0.00 0.00 0.00 84 1022.8
20220628070004 22 71 0.0 1.6 0.00 0.00 0.00 84 1022.9
20220628065504 22 71 0.0 1.6 0.00 0.00 0.00 84 1022.8
20220628065004 22 0 0.0 0.0 0.00 0.00 0.00 84 1022.9
20220628064504 22 0 0.0 0.0 0.00 0.00 0.00 84 1022.8
20220628064004 22 130 0.0 1.6 0.00 0.00 0.00 84 1022.8
20220628063503 22 130 0.0 1.6 0.00 0.00 0.00 84 1022.8
20220628063004 22 0 0.0 0.0 0.00 0.00 0.00 83 1022.7
20220628062504 22 0 0.0 0.0 0.00 0.00 0.00 83 1022.8
20220628062004 22 0 0.0 0.0 0.00 0.00 0.00 82 1022.8
20220628061504 22 142 0.0 1.6 0.00 0.00 0.00 82 1022.9
20220628061004 23 127 0.0 1.6 0.00 0.00 0.00 81 1022.8
20220628060503 23 90 0.0 1.6 0.00 0.00 0.00 81 1022.8
20220628060004 23 66 0.0 1.6 0.00 0.00 0.00 80 1022.8
20220628055504 23 0 0.0 0.0 0.00 0.00 0.00 80 1022.8
20220628055004 23 41 0.0 1.6 0.00 0.00 0.00 79 1023.0
20220628054504 23 56 0.0 3.2 0.00 0.00 0.00 79 1022.9
20220628054004 23 57 0.0 3.2 0.00 0.00 0.00 79 1023.0
20220628053504 23 54 1.6 4.8 0.00 0.00 0.00 79 1023.1
20220628053004 23 51 1.6 4.8 0.00 0.00 0.00 79 1023.0
20220628052504 24 52 1.6 4.8 0.00 0.00 0.00 79 1023.1
20220628052004 23 55 0.0 4.8 0.00 0.00 0.00 79 1023.1
20220628051504 24 63 0.0 1.6 0.00 0.00 0.00 79 1023.0
20220628051004 24 58 0.0 1.6 0.00 0.00 0.00 79 1023.1
20220628050504 24 64 0.0 3.2 0.00 0.00 0.00 78 1023.0
20220628050005 24 66 0.0 3.2 0.00 0.00 0.00 78 1023.0
20220628045504 24 67 0.0 1.6 0.00 0.00 0.00 78 1023.1
20220628045004 24 67 0.0 1.6 0.00 0.00 0.00 77 1023.0
20220628044504 25 59 0.0 4.8 0.00 0.00 0.00 77 1023.1
20220628044004 25 54 0.0 4.8 0.00 0.00 0.00 77 1023.0